[[{"header":{"parameterUnit":"m.s-1","parameterCategory":1,"la1":30.2991,"la2":30.254,"lo1":-89.0895,"lo2":-89.0444,"dy":0.0017,"dx":0.0017,"nx":28,"ny":28,"refTime":"2025-08-16T03:00:00:Z","depth":0,"parameterNumber":2,"parameterNumberName":"U-component_of_WINDS"},"data":[0,0,0,0,0,0,0,0,0,0,0,0,0,0,0,0,0,0,0,0,0,0,0,0,0,0,0,0,0,0,0,0,0,0,0,0,0,0,0,0,0,0,0,0,0,0,0,0,0,0,0,0,0,0,0,0,0,0,3.9737,3.9737,0,3.9794,3.9795,3.9795,3.97,3.9697,3.9694,3.9691,3.9748,3.9752,3.9757,0,0,0,0,0,0,0,0,0,0,0,0,0,3.9546,3.955,3.9737,3.9737,3.9738,3.9794,3.9795,3.9796,3.9701,3.9697,3.9693,3.9689,3.9746,3.9752,3.9757,0,0,0,0,0,0,0,0,0,0,0,0,0,3.9619,3.9551,3.9737,3.9698,3.9695,3.9794,3.9795,3.9796,3.9702,3.9697,3.9692,3.9687,3.9745,3.9751,3.9758,3.9897,0,0,3.9779,3.9782,0,0,0,0,0,0,0,0,3.9615,3.9626,3.9703,3.9701,3.9697,3.9735,3.9748,3.983,3.9703,3.9699,3.9691,3.9685,3.9747,3.9754,3.9775,3.99,3.9902,3.9779,3.9783,3.9786,3.9788,0,0,0,0,0,0,0,3.961,3.9623,3.9759,3.9704,3.9701,3.9678,3.9683,3.9763,3.975,3.9699,3.9692,3.97,3.9745,3.9769,3.9776,3.9903,3.9779,3.9785,3.9789,3.9792,4.015,4.0155,0,0,0,0,0,0,3.9609,3.9619,3.9757,3.9761,3.9643,3.9685,3.9691,3.9728,3.9749,3.9747,3.9705,3.9696,3.9759,3.9768,3.9777,3.9945,3.9786,3.9793,3.9797,4.0144,4.0151,4.0157,0,0,0,0,0,0,3.9606,3.9623,3.9755,3.9688,3.9703,3.9694,3.9736,3.9732,3.9755,3.9753,3.975,3.9731,3.9756,3.9768,3.9869,3.9946,3.9796,3.9802,4.0138,4.0146,4.0154,4.028,0,0,0,0,0,0,3.9601,3.9622,3.9674,3.969,3.9707,3.9846,3.9741,3.9736,3.9768,3.9757,3.9777,3.9776,3.9753,3.986,3.9876,3.9952,3.9807,4.0131,4.0142,4.0151,4.0269,4.0291,4.0311,0,0,0,0,0,3.9594,3.9706,3.9677,3.9695,3.9773,3.9851,3.9861,3.9833,3.9774,3.9827,3.9826,3.9775,3.9934,3.9871,3.9888,3.9968,4.0126,4.0139,4.015,4.026,4.0287,4.031,0,0,0,0,0,0,3.9697,3.9707,3.9676,3.9796,3.9824,3.9835,3.9901,3.9862,3.9906,3.9894,3.9857,3.9862,3.9972,3.9979,3.9909,4.0106,4.002,4.0037,4.0098,4.0124,4.0144,4.0141,3.9813,0,0,0,0,0,3.9735,3.9798,3.9802,3.9908,3.9924,3.9911,3.9943,3.992,3.9946,3.9957,3.9963,3.9991,4.0048,4.0085,4.0137,4.0269,4.0274,4.0333,4.0354,4.0371,4.0386,4.0461,4.0488,4.0197,4.0197,4.0196,0,0,3.9811,3.9825,3.9866,3.993,3.9948,4.0015,3.9921,3.9994,4.0044,3.9968,4.0066,4.0072,4.01,4.0219,4.0271,4.0228,4.0468,4.0386,4.04,4.0406,4.0476,4.0504,4.0528,4.0205,4.0203,4.0202,0,0,3.9986,4.0001,4.0093,4.0115,4.0145,4.0136,4.0158,4.0176,4.0178,4.0275,4.0221,4.0279,4.0376,4.0401,4.0425,4.0614,4.057,4.0632,4.0741,4.0814,4.0837,4.0857,4.0928,4.0953,4.0646,4.0647,4.0647,0,4.0078,4.0176,4.0145,4.0225,4.0255,4.0192,4.0286,4.0307,4.0353,4.0376,4.0327,4.0451,4.0465,4.0591,4.0638,4.0658,4.0685,4.063,4.0836,4.0856,4.0875,4.0942,4.0968,4.0654,4.0653,4.0652,4.0652,0,4.029,4.0359,4.043,4.0478,4.0516,4.0602,4.0585,4.0628,4.0602,4.0599,4.0701,4.0716,4.0772,4.0799,4.0773,4.0923,4.0895,4.0842,4.0756,4.0911,4.0973,4.0998,4.0665,4.0662,4.066,4.0658,0,0,4.053,4.0562,4.0589,4.0612,4.0642,4.0696,4.078,4.0836,4.0875,4.0909,4.098,4.1066,4.1018,4.1047,4.1023,4.1087,4.124,4.1026,4.1026,4.1068,4.141,4.1452,4.1482,4.1211,4.1215,4.1219,4.1408,0,4.0707,4.0853,4.083,4.0972,4.1038,4.098,4.1054,4.1081,4.1081,4.1137,4.1135,4.1199,4.1129,4.1147,4.1207,4.1209,4.1309,4.1194,4.1278,4.1282,4.1276,4.1514,4.1557,4.1735,4.1432,4.1436,4.1439,0,4.0932,4.0978,4.1128,4.1152,4.1178,4.1245,4.1297,4.135,4.1381,4.1376,4.1411,4.1376,4.1462,4.1374,4.1493,4.1416,4.1449,4.1455,4.1461,4.147,4.1372,4.1531,4.1791,4.1819,4.1477,4.1474,4.1471,0,4.1097,4.1195,4.1299,4.132,4.1349,4.1398,4.1413,4.1439,4.1475,4.152,4.1544,4.1597,4.1627,4.167,4.1652,4.1589,4.1776,4.1685,4.1777,4.1778,4.182,4.1818,4.2091,4.1837,4.1837,4.1836,4.1836,0,4.1299,4.1394,4.1374,4.1438,4.1543,4.1515,4.162,4.1628,4.1652,4.1717,4.1669,4.1731,4.1702,4.1763,4.1749,4.1852,4.1865,4.1865,4.1861,4.1871,4.1872,4.1893,4.1882,4.1843,4.1842,4.184,4.1839,0,4.1501,4.1492,4.1601,4.1622,4.1629,4.1706,4.1724,4.1784,4.1781,4.1865,4.1882,4.1878,4.1947,4.1933,4.2008,4.1999,4.2129,4.2108,4.212,4.2116,4.2209,4.2202,4.2508,4.2549,4.2266,4.2269,4.2271,0,4.1632,4.1704,4.1733,4.1774,4.1793,4.1859,4.1897,4.1873,4.1915,4.1958,4.2014,4.2079,4.213,4.2244,4.2247,4.2306,4.2287,4.2391,4.2295,4.2305,4.2293,4.229,4.2299,4.241,4.2413,4.2416,4.2418,0,4.1866,4.1858,4.1915,4.1973,4.202,4.2063,4.2102,4.2138,4.2117,4.2167,4.2238,4.2278,4.2357,4.2424,4.2479,4.2493,4.2454,4.2448,4.2473,4.2485,4.2491,4.2493,4.2174,4.2441,4.2439,4.2437,4.2436,4.2435,4.2038,4.2101,4.2133,4.22,4.2227,4.2265,4.2324,4.233,4.2389,4.2453,4.2434,4.2517,4.2548,4.2618,4.264,4.2704,4.2666,4.2701,4.271,4.272,4.2733,4.2479,4.2714,4.2713,4.2712,4.2712,4.2711,0,4.2273,4.2291,4.2352,4.241,4.2463,4.2421,4.2463,4.251,4.2583,4.2617,4.2669,4.2753,4.2818,4.2828,4.289,4.294,4.2924,4.2957,4.2955,4.296,4.2762,4.2736,4.297,4.297,4.297,4.297,4.297,4.297,4.2401,4.2507,4.2504,4.2624,4.2641,4.2723,4.2751,4.2786,4.2813,4.291,4.2964,4.2971,4.2996,4.306,4.3118,4.312,4.3146,4.3188,4.3182,4.2998,4.2973,4.2948,4.2924,4.3193,4.3193,4.3374,4.3376,4.3377]},{"header":{"parameterUnit":"m.s-1","parameterCategory":1,"la1":30.2991,"la2":30.254,"lo1":-89.0895,"lo2":-89.0444,"dy":0.0017,"dx":0.0017,"nx":28,"ny":28,"refTime":"2025-08-16T03:00:00:Z","depth":0,"parameterNumber":3,"parameterNumberName":"V-component_of_WINDS"},"data":[0,0,0,0,0,0,0,0,0,0,0,0,0,0,0,0,0,0,0,0,0,0,0,0,0,0,0,0,0,0,0,0,0,0,0,0,0,0,0,0,0,0,0,0,0,0,0,0,0,0,0,0,0,0,0,0,0,0,-0.6631,-0.663,0,-0.6446,-0.6444,-0.6442,-0.6386,-0.6387,-0.6388,-0.6389,-0.6191,-0.6185,-0.6179,0,0,0,0,0,0,0,0,0,0,0,0,0,-0.6932,-0.6927,-0.6632,-0.6629,-0.6627,-0.6446,-0.6444,-0.6441,-0.6386,-0.6387,-0.6389,-0.639,-0.6193,-0.6186,-0.6178,0,0,0,0,0,0,0,0,0,0,0,0,0,-0.6779,-0.6925,-0.6632,-0.6578,-0.6571,-0.6447,-0.6444,-0.644,-0.6386,-0.6387,-0.6389,-0.639,-0.6195,-0.6186,-0.6177,-0.609,0,0,-0.6149,-0.6145,0,0,0,0,0,0,0,0,-0.6788,-0.6768,-0.6588,-0.6582,-0.6574,-0.6441,-0.6477,-0.6323,-0.6386,-0.6456,-0.6389,-0.6391,-0.6272,-0.6257,-0.6218,-0.6081,-0.6073,-0.6148,-0.6142,-0.6138,-0.6136,0,0,0,0,0,0,0,-0.6799,-0.6776,-0.6558,-0.6586,-0.6577,-0.6561,-0.6541,-0.6447,-0.6358,-0.645,-0.6446,-0.6425,-0.6269,-0.6228,-0.6213,-0.607,-0.6148,-0.614,-0.6134,-0.6131,-0.5852,-0.5851,0,0,0,0,0,0,-0.6819,-0.6785,-0.6564,-0.6552,-0.6687,-0.6554,-0.6532,-0.6482,-0.6359,-0.6342,-0.6424,-0.6423,-0.6243,-0.6224,-0.6206,-0.6097,-0.6138,-0.613,-0.6124,-0.5854,-0.5852,-0.585,0,0,0,0,0,0,-0.6826,-0.68,-0.6571,-0.6667,-0.6637,-0.6548,-0.6492,-0.6478,-0.6437,-0.6339,-0.6322,-0.6399,-0.6243,-0.6219,-0.612,-0.6089,-0.6125,-0.6117,-0.5856,-0.5853,-0.5851,-0.5877,0,0,0,0,0,0,-0.6835,-0.6803,-0.677,-0.6667,-0.6632,-0.6491,-0.649,-0.6473,-0.6422,-0.6419,-0.6311,-0.6295,-0.6243,-0.6135,-0.6111,-0.6077,-0.611,-0.5859,-0.5855,-0.5852,-0.5879,-0.5876,-0.5873,0,0,0,0,0,-0.6846,-0.6783,-0.6769,-0.6743,-0.659,-0.6489,-0.6469,-0.6412,-0.6419,-0.6385,-0.6323,-0.6298,-0.6097,-0.6125,-0.6098,-0.6061,-0.586,-0.5856,-0.5852,-0.588,-0.5877,-0.5874,0,0,0,0,0,0,-0.6881,-0.6769,-0.6752,-0.6654,-0.6582,-0.648,-0.6435,-0.641,-0.6332,-0.6332,-0.6263,-0.6239,-0.6145,-0.6093,-0.6126,-0.5971,-0.5978,-0.5968,-0.6008,-0.6004,-0.6001,-0.6015,-0.6102,0,0,0,0,0,-0.6879,-0.6808,-0.6713,-0.6636,-0.6601,-0.6525,-0.6478,-0.6441,-0.6362,-0.6331,-0.6261,-0.6183,-0.6102,-0.605,-0.5971,-0.5872,-0.5847,-0.5833,-0.583,-0.5828,-0.582,-0.5764,-0.5757,-0.5837,-0.5837,-0.5837,0,0,-0.6871,-0.6801,-0.676,-0.6641,-0.6581,-0.6508,-0.6499,-0.6421,-0.6365,-0.6318,-0.6221,-0.6167,-0.6076,-0.5977,-0.593,-0.593,-0.5793,-0.5823,-0.5823,-0.5815,-0.5759,-0.5752,-0.5745,-0.5834,-0.5834,-0.5835,0,0,-0.6819,-0.6759,-0.6689,-0.663,-0.654,-0.649,-0.6474,-0.6376,-0.6339,-0.6242,-0.6205,-0.6137,-0.5999,-0.5936,-0.5885,-0.5813,-0.5787,-0.5789,-0.5774,-0.572,-0.5714,-0.5708,-0.5681,-0.5673,-0.5781,-0.5781,-0.5781,0,-0.6819,-0.671,-0.6656,-0.6581,-0.6529,-0.6487,-0.6415,-0.6359,-0.6246,-0.6211,-0.6214,-0.6042,-0.5977,-0.5863,-0.5846,-0.5807,-0.5785,-0.58,-0.572,-0.5713,-0.5707,-0.5681,-0.5671,-0.5782,-0.5782,-0.5782,-0.5782,0,-0.6715,-0.664,-0.6594,-0.649,-0.6434,-0.636,-0.6293,-0.6242,-0.6211,-0.616,-0.6062,-0.5983,-0.5887,-0.5858,-0.5825,-0.5739,-0.5742,-0.5734,-0.5739,-0.5701,-0.5675,-0.5665,-0.5783,-0.5783,-0.5783,-0.5782,0,0,-0.6678,-0.6548,-0.6532,-0.6485,-0.6384,-0.6323,-0.6248,-0.6157,-0.6115,-0.6039,-0.5973,-0.5859,-0.5851,-0.5794,-0.5754,-0.5708,-0.5655,-0.5704,-0.5701,-0.5697,-0.5555,-0.5562,-0.5552,-0.5638,-0.5636,-0.5635,-0.5563,0,-0.6613,-0.648,-0.6429,-0.6319,-0.6249,-0.6209,-0.6143,-0.6073,-0.6024,-0.5955,-0.59,-0.582,-0.5816,-0.5781,-0.5734,-0.5672,-0.5625,-0.5676,-0.5574,-0.5571,-0.5598,-0.5538,-0.5544,-0.5481,-0.5553,-0.5551,-0.555,0,-0.6518,-0.6446,-0.633,-0.6239,-0.6208,-0.615,-0.6063,-0.5999,-0.5919,-0.5886,-0.5825,-0.5788,-0.5706,-0.5719,-0.5604,-0.564,-0.5595,-0.5559,-0.5555,-0.5542,-0.5557,-0.5523,-0.5459,-0.5449,-0.5533,-0.5535,-0.5536,0,-0.6503,-0.6375,-0.629,-0.6251,-0.6143,-0.6103,-0.6056,-0.5978,-0.5927,-0.5851,-0.5817,-0.5731,-0.5684,-0.5618,-0.5559,-0.5573,-0.545,-0.5457,-0.5419,-0.542,-0.5393,-0.5395,-0.532,-0.5366,-0.5366,-0.5367,-0.5367,0,-0.6434,-0.6365,-0.6282,-0.6229,-0.615,-0.6092,-0.6015,-0.5964,-0.5895,-0.583,-0.579,-0.5729,-0.5656,-0.5586,-0.5539,-0.5451,-0.543,-0.54,-0.5388,-0.5403,-0.5407,-0.5372,-0.5375,-0.5364,-0.5365,-0.5365,-0.5366,0,-0.6402,-0.6344,-0.6248,-0.6156,-0.6131,-0.6076,-0.5996,-0.5942,-0.5893,-0.5812,-0.5789,-0.571,-0.5626,-0.5562,-0.5451,-0.5419,-0.5326,-0.5314,-0.5354,-0.5348,-0.5313,-0.5317,-0.5212,-0.5195,-0.5254,-0.5254,-0.5253,0,-0.6362,-0.6308,-0.6211,-0.6167,-0.6121,-0.6049,-0.5998,-0.594,-0.5888,-0.5794,-0.5752,-0.5665,-0.5593,-0.5459,-0.5391,-0.5306,-0.5291,-0.526,-0.5277,-0.5295,-0.529,-0.5293,-0.5288,-0.5257,-0.5257,-0.5257,-0.5256,0,-0.6297,-0.6272,-0.6202,-0.6122,-0.6063,-0.5997,-0.5929,-0.5894,-0.5824,-0.5767,-0.5683,-0.5627,-0.5516,-0.543,-0.5339,-0.5288,-0.5259,-0.5252,-0.5239,-0.5252,-0.5278,-0.5264,-0.5347,-0.5254,-0.5254,-0.5254,-0.5255,-0.5255,-0.6258,-0.6209,-0.6134,-0.6058,-0.6002,-0.594,-0.5886,-0.5832,-0.5761,-0.5668,-0.5637,-0.555,-0.5471,-0.5347,-0.5295,-0.5224,-0.5223,-0.5204,-0.5199,-0.5195,-0.5196,-0.5291,-0.5207,-0.5207,-0.5207,-0.5207,-0.5207,0,-0.6191,-0.6141,-0.6072,-0.5981,-0.5921,-0.5904,-0.5829,-0.5779,-0.5703,-0.5634,-0.5565,-0.5467,-0.5385,-0.5311,-0.5225,-0.5182,-0.5167,-0.5161,-0.5163,-0.5152,-0.5202,-0.5222,-0.5175,-0.5175,-0.5175,-0.5175,-0.5175,-0.5175,-0.6148,-0.6065,-0.6031,-0.5919,-0.5869,-0.5785,-0.5744,-0.5686,-0.5631,-0.5526,-0.5458,-0.5412,-0.534,-0.5249,-0.5172,-0.5152,-0.5122,-0.5119,-0.5096,-0.5144,-0.5148,-0.5152,-0.517,-0.5113,-0.5113,-0.5052,-0.5051,-0.5051]}]]